Temp
5 5 4 4 4 4 4 4 3 3 3 3 3 3 3 3 3 3 3 3 3 3 4 4 4 5 4 4 4 4 4 4 4 4 4 4 4 5 5 5 5 5 5
4 4 4 4 3 3 3 3 3 3 3 3 3 3 3 3 3 3 3 3 3 3 4 4 4 4 4 4 4 4 4 3 3 3 3 3 3 3 3 4 4 4 4
3 3 3 3 3 3 3 3 3 3 3 3 3 3 3 3 3 2 3 3 3 3 3 3 4 5 3 3 3 3 3 2 2 3 2 2 3 2 3 3 3 4 3
3 3 3 3 3 3 3 2 2 2 3 3 3 3 3 3 3 3 2 3 3 3 3 3 3 4 2 3 2 3 2 2 2 2 2 2 3 3 3 3 3 2 2
3 3 3 3 3 3 3 3 3 3 2 2 2 2 2 2 2 2 2 3 3 2 3 3 3 3 3 3 2 2 2 3 3 2 2 2 2 2 3 3 3 2 2
3 3 3 2 3 2 3 3 3 3 2 2 2 2 1 1 2 2 2 2 2 2 2 1 2 2 2 2 2 1 1 2 3 2 2 2 2 2 1 2 2 2 2
2 2 2 2 2 2 2 2 3 1 1 2 2 -0 0 0 0 1 1 1 1 1 1 2 2 1 2 2 1 2 1 1 1 1 1 1 1 2 2 2 2 3 2
1 1 1 1 1 1 1 1 1 2 2 1 0 -0 0 0 -0 0 1 1 1 1 1 1 1 1 2 2 1 1 1 2 1 1 1 1 1 2 2 2 2 2 3
1 0 1 1 1 -0 0 1 1 2 2 1 1 0 0 0 -1 -1 -0 -0 0 0 -0 -0 -0 0 1 1 1 1 1 1 2 2 1 1 1 2 2 2 2 2 2
1 0 -0 0 0 0 1 1 1 1 2 1 -0 1 0 -0 -1 -1 -0 -1 -2 -2 -1 -0 -0 -1 -1 -0 -0 -0 0 1 1 1 1 1 1 1 2 2 2 2 2
-0 0 0 -0 0 -0 0 1 1 0 1 1 1 1 0 0 0 -0 -1 -1 -2 -2 -3 -3 -2 -1 -1 -1 -1 -1 -1 -1 -0 0 1 1 0 0 1 1 1 1 2
-0 0 -0 -0 -0 0 0 0 0 -1 -0 0 0 1 1 0 -0 -1 -2 -2 -3 -2 -2 -3 -3 -3 -2 -2 -2 -2 -2 -2 -2 -1 -1 -0 -0 -0 -0 -0 -0 0 0
-0 -0 0 -1 -0 -0 -1 -1 -1 -1 -1 -1 -0 0 0 0 0 -1 -3 -3 -2 -2 -2 -2 -2 -4 -4 -3 -3 -3 -3 -3 -3 -2 -2 -2 -1 -1 -1 -1 -1 -1 -1
-1 -1 -1 -1 -1 -1 -1 -2 -2 -1 -1 -0 -0 -0 -0 -0 -0 -1 -2 -3 -3 -3 -3 -3 -3 -4 -5 -5 -4 -3 -3 -3 -3 -3 -3 -3 -2 -2 -2 -2 -2 -2 -2
-1 -1 -1 -1 -2 -1 -1 -1 -2 -1 -1 -1 -1 -1 -1 -1 -2 -2 -3 -4 -3 -4 -4 -4 -5 -4 -4 -4 -4 -4 -3 -3 -3 -3 -3 -3 -3 -3 -3 -3 -3 -2 -2
-1 -1 -1 -1 -1 -2 -2 -2 -2 -2 -1 -2 -2 -2 -2 -2 -2 -2 -3 -4 -4 -5 -5 -5 -5 -5 -5 -5 -5 -5 -5 -4 -4 -4 -4 -4 -4 -4 -4 -4 -4 -4 -3
-2 -2 -1 -2 -2 -2 -3 -3 -3 -3 -3 -3 -3 -3 -2 -2 -2 -2 -3 -4 -5 -5 -5 -5 -5 -5 -6 -6 -5 -5 -5 -5 -5 -5 -5 -5 -5 -4 -4 -4 -4 -4 -5
-1 -2 -2 -2 -3 -2 -2 -3 -3 -4 -4 -3 -3 -3 -3 -3 -3 -3 -4 -4 -5 -5 -6 -6 -6 -6 -6 -6 -6 -6 -6 -6 -6 -6 -6 -6 -6 -6 -6 -6 -6 -6 -5
-3 -2 -2 -2 -2 -2 -3 -4 -4 -4 -4 -4 -4 -4 -4 -4 -4 -4 -5 -5 -5 -6 -6 -6 -7 -7 -7 -7 -7 -7 -7 -7 -7 -7 -7 -7 -7 -7 -7 -7 -7 -7 -7
-2 -3 -3 -3 -3 -3 -3 -4 -4 -4 -4 -4 -4 -4 -4 -5 -5 -6 -6 -6 -7 -7 -7 -7 -7 -7 -7 -7 -7 -7 -7 -8 -8 -8 -8 -8 -8 -8 -8 -8 -8 -7 -8
-3 -3 -3 -3 -4 -4 -4 -5 -5 -5 -5 -5 -6 -6 -6 -6 -6 -7 -7 -7 -7 -7 -8 -8 -8 -8 -8 -8 -8 -8 -9 -9 -9 -9 -9 -9 -9 -9 -9 -9 -9 -9 -9
-4 -4 -4 -5 -5 -5 -5 -5 -6 -6 -6 -6 -7 -7 -7 -7 -7 -7 -7 -8 -8 -8 -8 -8 -9 -9 -9 -9 -9 -9 -9 -9 -9 -9 -9 -10 -9 -10 -9 -9 -10 -10 -10
-6 -6 -6 -6 -6 -6 -6 -6 -7 -7 -7 -7 -8 -8 -8 -8 -8 -8 -8 -8 -8 -8 -9 -9 -9 -9 -9 -10 -10 -10 -10 -10 -10 -10 -10 -10 -10 -10 -10 -10 -10 -10 -10
-6 -6 -6 -6 -6 -7 -8 -8 -7 -8 -8 -8 -8 -8 -8 -8 -9 -9 -9 -9 -9 -9 -10 -10 -10 -10 -10 -11 -11 -11 -11 -11 -11 -11 -10 -10 -11 -10 -10 -11 -11 -11 -11
-7 -7 -7 -8 -8 -8 -8 -8 -8 -8 -8 -8 -8 -9 -9 -9 -10 -10 -10 -10 -10 -10 -11 -11 -11 -11 -11 -11 -11 -11 -11 -11 -11 -11 -12 -11 -11 -10 -11 -11 -11 -11 -12
-8 -8 -9 -9 -9 -8 -9 -9 -9 -9 -9 -9 -10 -10 -10 -10 -10 -11 -11 -11 -11 -11 -12 -12 -12 -12 -12 -12 -12 -12 -12 -12 -12 -12 -12 -12 -12 -12 -11 -12 -12 -12 -12
Height
3183 3185 3188 3190 3192 3194 3195 3197 3199 3200 3202 3204 3206 3207 3208 3210 3212 3212 3215 3216 3217 3218 3219 3219 3220 3220 3219 3218 3219 3219 3220 3220 3221 3220 3221 3221 3221 3223 3223 3223 3224 3224 3224
3181 3184 3186 3189 3191 3193 3196 3198 3199 3201 3202 3204 3205 3207 3209 3210 3211 3214 3215 3216 3217 3218 3219 3219 3219 3219 3217 3217 3216 3217 3218 3219 3219 3221 3222 3222 3223 3223 3225 3224 3225 3224 3224
3179 3181 3184 3187 3189 3192 3194 3196 3198 3200 3201 3203 3204 3206 3208 3209 3211 3213 3215 3215 3216 3217 3218 3219 3219 3217 3216 3214 3215 3216 3217 3218 3219 3221 3221 3223 3223 3224 3225 3225 3225 3225 3225
3177 3180 3183 3185 3188 3190 3192 3194 3196 3198 3200 3202 3203 3205 3207 3208 3210 3211 3212 3213 3215 3216 3217 3218 3218 3218 3215 3217 3215 3213 3214 3218 3219 3220 3221 3224 3225 3224 3223 3223 3223 3223 3224
3174 3177 3180 3182 3185 3187 3190 3191 3193 3195 3197 3200 3202 3203 3205 3206 3207 3209 3210 3211 3212 3214 3214 3216 3216 3217 3216 3218 3218 3216 3218 3218 3220 3220 3221 3222 3224 3223 3222 3222 3222 3222 3222
3170 3174 3176 3179 3181 3183 3185 3188 3189 3191 3193 3196 3198 3199 3202 3204 3205 3206 3208 3209 3211 3211 3212 3213 3214 3215 3216 3215 3216 3216 3217 3219 3220 3219 3220 3220 3220 3220 3219 3219 3219 3219 3220
3167 3169 3172 3175 3177 3179 3181 3184 3186 3188 3189 3192 3194 3196 3198 3200 3201 3202 3204 3206 3208 3209 3210 3211 3212 3212 3213 3213 3212 3213 3212 3215 3216 3216 3217 3217 3216 3216 3215 3214 3215 3215 3215
3162 3166 3169 3171 3174 3176 3177 3179 3182 3184 3186 3188 3191 3193 3195 3197 3198 3198 3200 3202 3204 3205 3206 3207 3208 3208 3208 3209 3209 3209 3207 3210 3213 3213 3212 3211 3211 3211 3210 3209 3209 3210 3210
3158 3162 3165 3168 3170 3172 3175 3177 3178 3180 3182 3184 3185 3188 3190 3191 3194 3195 3196 3198 3200 3201 3201 3202 3202 3203 3203 3203 3203 3203 3202 3204 3207 3208 3207 3207 3206 3206 3205 3205 3205 3205 3205
3155 3158 3161 3164 3166 3168 3171 3173 3175 3177 3178 3180 3181 3183 3184 3187 3188 3191 3192 3193 3195 3196 3196 3197 3197 3197 3197 3197 3197 3197 3196 3197 3199 3201 3202 3202 3201 3200 3200 3200 3201 3201 3200
3149 3152 3157 3160 3162 3164 3167 3169 3170 3172 3174 3176 3177 3178 3180 3181 3183 3185 3185 3187 3189 3191 3191 3191 3191 3192 3192 3192 3191 3191 3190 3189 3191 3193 3194 3195 3193 3192 3193 3194 3194 3195 3194
3144 3146 3151 3154 3157 3160 3162 3164 3165 3167 3169 3171 3172 3173 3175 3176 3177 3178 3179 3181 3183 3185 3185 3186 3185 3185 3186 3186 3186 3186 3185 3184 3184 3185 3186 3187 3186 3185 3185 3185 3185 3186 3186
3136 3140 3145 3149 3152 3154 3156 3158 3159 3161 3164 3166 3167 3168 3168 3169 3170 3171 3172 3174 3176 3178 3179 3180 3179 3179 3178 3179 3179 3179 3178 3178 3177 3177 3178 3179 3178 3177 3177 3177 3177 3177 3177
3129 3134 3140 3143 3146 3147 3150 3151 3154 3156 3158 3160 3161 3162 3162 3163 3164 3164 3166 3168 3168 3170 3172 3173 3172 3171 3171 3171 3171 3171 3171 3170 3169 3169 3170 3171 3171 3170 3169 3168 3168 3168 3167
3123 3128 3133 3136 3139 3142 3144 3145 3148 3151 3153 3155 3156 3157 3157 3157 3157 3158 3159 3161 3162 3163 3165 3165 3164 3163 3163 3163 3162 3163 3163 3163 3163 3162 3162 3162 3163 3162 3162 3161 3160 3158 3158
3116 3121 3125 3128 3132 3135 3138 3139 3141 3144 3145 3146 3148 3150 3151 3151 3151 3151 3152 3153 3154 3154 3155 3156 3155 3155 3155 3155 3155 3155 3155 3155 3155 3154 3154 3154 3154 3154 3153 3152 3151 3150 3149
3111 3113 3117 3120 3124 3126 3131 3133 3134 3136 3138 3139 3141 3142 3143 3144 3144 3144 3145 3146 3146 3147 3147 3147 3147 3147 3147 3147 3148 3148 3148 3148 3147 3147 3146 3146 3145 3145 3144 3143 3142 3141 3140
3101 3104 3110 3115 3118 3120 3122 3124 3127 3129 3131 3133 3134 3134 3135 3136 3136 3137 3138 3138 3139 3139 3140 3140 3140 3140 3140 3140 3140 3141 3141 3141 3140 3139 3138 3138 3137 3137 3135 3134 3134 3133 3132
3094 3097 3101 3104 3107 3110 3113 3116 3120 3122 3125 3126 3127 3127 3127 3128 3129 3130 3130 3131 3131 3132 3132 3133 3133 3133 3133 3133 3133 3133 3133 3133 3132 3131 3130 3129 3129 3128 3127 3126 3125 3124 3123
3087 3089 3093 3097 3099 3103 3105 3109 3112 3116 3118 3119 3120 3120 3121 3121 3122 3122 3123 3124 3124 3125 3125 3126 3126 3126 3126 3126 3126 3125 3125 3124 3124 3123 3122 3121 3120 3120 3119 3118 3117 3116 3114
3077 3081 3087 3089 3093 3095 3099 3103 3107 3109 3111 3112 3113 3114 3115 3116 3116 3116 3117 3118 3118 3119 3119 3119 3119 3119 3119 3119 3118 3118 3117 3116 3116 3115 3114 3113 3113 3112 3110 3109 3108 3108 3107
3071 3075 3078 3082 3086 3090 3094 3098 3100 3102 3104 3106 3107 3108 3109 3110 3111 3111 3112 3112 3113 3113 3113 3113 3113 3113 3113 3113 3113 3112 3111 3110 3109 3108 3107 3106 3105 3104 3102 3101 3100 3099 3098
3065 3070 3074 3078 3082 3085 3088 3092 3094 3097 3099 3100 3102 3103 3104 3105 3106 3106 3107 3107 3107 3107 3107 3107 3107 3107 3107 3106 3106 3105 3104 3103 3103 3101 3100 3101 3097 3096 3094 3093 3092 3091 3089
3062 3066 3070 3073 3076 3080 3084 3088 3090 3092 3093 3095 3097 3098 3099 3100 3101 3101 3102 3102 3102 3102 3102 3102 3101 3101 3100 3099 3099 3098 3097 3096 3095 3094 3091 3091 3090 3087 3087 3085 3083 3080 3079
3058 3062 3065 3069 3073 3077 3081 3084 3085 3087 3089 3091 3092 3093 3094 3094 3095 3095 3095 3096 3095 3095 3096 3096 3095 3094 3093 3092 3091 3090 3089 3088 3086 3086 3083 3080 3080 3078 3078 3077 3074 3072 3069
3056 3060 3064 3068 3071 3075 3077 3078 3080 3082 3084 3085 3086 3086 3087 3088 3089 3089 3090 3090 3089 3089 3089 3089 3088 3087 3086 3085 3083 3082 3080 3079 3077 3077 3076 3073 3072 3069 3069 3068 3067 3064 3061
Wind_Speed
18 15 12 11 9 8 8 9 13 13 13 13 10 10 10 13 9 12 2 5 4 5 2 6 4 7 8 11 10 7 5 5 4 3 3 4 4 5 5 4 5 6 5
22 18 15 13 11 10 9 9 10 12 12 11 9 12 6 7 10 8 8 4 6 5 4 3 3 4 4 6 11 10 10 9 6 8 4 6 7 4 2 1 2 3 4
24 22 18 16 14 13 12 11 11 11 11 10 10 9 9 9 7 8 8 4 4 5 6 8 5 7 4 5 7 9 6 5 10 7 9 16 3 6 4 9 4 6 8
24 22 19 19 18 16 15 14 14 13 13 12 11 9 9 8 8 9 9 8 9 10 11 10 6 9 6 8 10 12 8 3 4 5 11 7 4 2 4 5 8 13 15
26 25 23 22 21 21 21 20 19 18 17 15 13 12 11 10 10 10 9 9 10 15 14 13 12 11 11 8 5 3 3 2 4 8 9 6 7 10 8 8 9 9 10
27 25 22 21 20 25 25 24 23 22 20 17 17 16 14 13 14 14 12 12 12 14 15 11 13 12 12 15 15 14 12 5 11 10 11 16 16 19 16 15 15 16 17
25 24 21 19 16 16 20 25 23 23 21 20 19 17 18 18 20 21 18 15 15 15 15 14 20 20 22 22 20 19 19 18 18 23 18 23 23 21 21 22 18 18 19
24 22 21 19 15 13 14 17 19 19 24 24 22 20 19 20 22 24 18 18 17 18 18 19 20 21 21 22 23 24 27 24 24 25 27 24 23 23 22 22 22 20 22
24 24 23 20 16 15 10 12 17 19 21 22 22 24 25 25 24 25 24 21 19 19 20 20 21 23 24 25 24 25 28 27 24 24 25 24 24 25 26 25 25 26 25
25 22 19 19 20 19 17 14 14 16 20 22 26 29 26 27 28 28 25 24 23 22 24 25 23 23 24 26 27 27 30 30 28 26 25 25 26 27 28 28 28 27 28
28 25 27 23 23 20 20 18 16 16 15 16 18 20 24 28 27 29 28 28 27 26 27 28 27 27 26 28 29 30 31 32 31 29 29 27 29 29 29 29 29 30 30
34 31 28 23 24 23 20 21 21 17 20 17 18 18 21 25 28 27 29 29 28 28 29 30 33 34 29 27 29 31 31 32 32 31 31 30 32 32 32 31 31 31 32
33 29 28 27 26 24 23 21 19 19 22 20 18 19 20 24 27 29 31 30 29 31 31 31 32 32 35 32 32 32 33 34 35 34 33 32 33 34 34 34 33 34 34
30 26 29 30 34 27 27 21 25 21 20 21 22 22 23 23 25 27 28 30 32 31 31 31 33 43 39 39 39 35 37 37 36 35 34 34 34 35 36 36 35 35 36
31 30 33 33 31 29 32 28 27 24 26 24 22 23 23 24 24 26 30 29 30 32 34 37 42 42 33 32 32 31 31 32 32 33 33 33 33 33 34 35 35 36 36
42 39 37 34 31 35 31 29 31 28 27 26 22 23 24 25 25 25 27 31 36 35 38 37 38 40 36 33 31 29 29 30 31 31 32 33 34 34 34 34 34 35 35
42 36 33 39 31 31 31 35 35 30 28 27 25 26 25 25 24 25 26 28 31 32 32 32 31 30 31 29 29 29 29 30 31 31 32 32 32 33 34 34 34 35 34
39 29 34 41 39 36 36 38 30 27 30 28 29 28 27 26 25 26 27 28 29 30 29 29 28 28 29 29 29 29 30 30 30 30 31 32 32 33 34 35 36 37 38
38 33 32 42 40 42 45 32 32 33 30 30 31 31 28 27 27 27 27 26 27 27 27 27 28 28 29 29 29 30 31 32 32 33 33 33 33 34 34 34 34 35 35
35 36 38 42 34 41 35 33 31 30 30 31 30 30 29 27 26 25 25 25 26 26 26 27 28 28 29 30 30 30 30 30 30 30 30 30 30 30 31 31 31 32 33
38 33 37 37 38 35 32 29 29 30 30 29 28 27 25 24 23 23 23 23 24 24 25 26 26 27 27 27 27 27 27 27 28 27 28 28 28 28 29 30 30 30 31
38 38 36 35 35 32 31 29 28 27 26 24 21 19 18 17 18 18 19 20 20 21 22 22 23 24 24 24 25 25 25 26 27 27 28 28 29 29 31 31 31 32 33
31 30 29 29 27 27 26 24 22 21 19 16 15 15 16 16 17 18 19 19 20 20 21 22 22 22 23 23 25 26 26 27 28 29 31 28 31 32 34 35 35 35 36
24 25 26 27 26 23 20 20 20 17 16 15 15 16 17 18 19 20 20 21 21 22 23 24 24 24 25 26 26 27 28 29 30 30 34 33 32 34 34 35 35 36 36
25 25 23 21 19 19 20 19 17 16 16 17 18 18 19 19 20 20 21 22 23 24 24 25 25 26 27 27 29 30 30 32 32 32 33 35 33 32 31 29 30 32 33
19 17 17 18 19 19 18 18 17 18 18 19 19 19 19 20 20 21 22 23 24 25 25 25 26 27 28 29 30 31 31 31 30 28 27 30 29 32 31 30 31 33 34
Wind_Direction
185 186 188 180 175 167 152 146 144 163 163 171 185 202 200 211 209 166 174 189 187 177 164 247 311 284 274 250 268 270 255 250 252 216 177 162 164 213 219 227 234 241 246
192 196 199 196 191 190 179 172 169 172 182 185 180 200 184 191 222 213 241 242 204 206 183 207 204 283 270 241 233 229 238 233 229 230 229 146 124 126 75 329 278 288 291
198 198 202 209 210 206 204 198 193 192 199 202 201 197 193 186 196 215 229 209 220 230 227 232 252 293 57 250 237 239 225 233 121 136 105 105 100 213 321 238 270 272 320
209 208 219 216 221 224 222 218 211 210 209 210 214 216 217 222 224 222 224 231 250 242 230 225 206 210 77 60 74 123 118 22 314 240 123 107 105 84 16 272 277 271 245
216 222 227 227 229 232 233 232 233 225 218 214 216 219 226 231 235 236 240 242 244 211 232 232 241 236 266 256 298 310 275 324 183 139 130 163 301 275 278 280 278 275 247
222 235 230 230 237 235 237 238 242 241 235 229 226 225 226 234 240 246 244 248 248 253 248 248 215 244 216 256 253 266 258 257 222 263 263 276 289 281 277 270 274 268 268
225 243 238 237 237 239 241 244 243 237 248 242 237 238 239 245 251 247 248 252 252 254 258 249 249 251 251 260 263 253 263 261 245 268 258 271 281 284 278 277 276 270 270
231 238 232 236 247 243 243 238 244 246 243 246 238 238 232 243 247 260 260 257 255 255 255 257 260 264 263 257 256 257 259 263 257 260 266 271 271 272 274 273 276 274 275
224 231 240 227 247 256 234 250 246 247 246 248 244 240 253 251 254 256 272 268 266 261 255 256 260 260 264 268 267 264 265 266 261 258 264 265 267 268 269 272 274 276 276
228 230 231 226 242 254 250 253 256 250 247 245 249 258 249 244 249 254 263 261 266 265 264 253 255 259 261 263 265 267 269 269 266 263 260 262 265 263 266 268 269 271 274
234 229 230 233 244 244 252 254 253 251 249 252 259 256 252 258 252 252 256 259 266 267 271 276 274 262 265 267 265 266 267 270 273 270 267 266 264 266 264 264 265 266 267
236 230 240 242 235 244 254 264 251 255 250 260 264 266 266 259 260 258 255 260 257 260 266 267 272 275 270 268 266 264 266 269 271 273 273 272 272 273 273 272 270 269 268
221 231 234 239 237 240 255 252 265 255 253 266 267 266 268 269 263 256 253 255 257 260 257 267 264 273 277 270 268 268 267 268 269 270 270 269 270 272 273 274 274 274 273
218 231 234 236 243 253 253 260 262 256 252 261 266 268 270 269 270 265 260 262 263 264 262 257 262 267 275 278 275 271 268 271 271 272 272 271 270 271 272 274 276 277 277
235 235 241 242 240 242 246 258 255 255 261 260 264 258 270 272 267 262 255 255 254 257 262 265 268 274 279 277 274 271 269 270 271 273 274 274 274 273 273 274 275 276 276
245 246 234 231 242 238 249 245 255 258 263 271 265 269 273 269 269 266 263 258 262 266 268 270 272 275 276 273 270 267 267 267 268 269 270 272 274 275 276 276 276 277 277
235 235 242 238 230 228 251 249 251 256 263 263 269 273 271 264 262 265 264 261 262 265 269 271 272 270 271 268 267 267 267 267 269 270 271 272 273 273 274 275 276 276 277
226 225 247 244 239 243 235 238 244 249 251 260 272 274 271 268 265 262 260 261 263 264 266 266 266 267 266 267 267 267 269 270 270 271 271 271 272 273 273 274 274 276 277
231 228 245 229 236 238 228 234 234 238 248 261 270 272 272 270 268 265 263 263 264 264 263 264 264 264 266 268 270 271 272 273 273 273 274 275 276 276 276 276 277 277 279
231 241 229 249 247 229 229 230 232 244 252 260 263 265 266 266 265 264 264 264 263 263 262 262 263 264 266 268 269 271 272 274 274 275 276 277 277 277 278 279 278 277 277
228 234 234 244 235 228 225 230 237 248 253 256 256 256 258 260 261 262 263 264 264 264 264 265 266 266 267 267 268 270 270 272 273 275 276 276 277 278 279 280 279 279 279
226 229 232 224 217 218 225 234 246 249 249 247 246 248 251 256 260 263 265 266 267 268 267 267 267 267 268 268 270 272 274 275 276 275 276 278 278 278 279 280 280 282 283
220 218 213 217 225 231 236 238 233 228 229 233 240 247 252 256 261 263 265 266 267 268 268 267 267 267 268 269 269 269 271 272 274 276 277 277 279 280 281 283 284 284 283
215 223 228 230 225 217 211 215 219 223 229 236 244 252 259 262 264 266 267 267 267 267 268 269 268 269 271 272 273 274 275 276 277 278 280 280 279 280 281 283 283 283 283
212 206 199 195 198 206 213 217 223 232 242 250 257 262 263 264 265 265 266 266 268 269 269 270 272 274 274 275 277 278 279 280 281 281 282 284 284 283 284 285 286 287 287
184 191 199 205 208 212 218 228 236 243 249 253 257 259 263 265 265 266 267 268 268 270 271 273 272 273 274 275 277 279 278 279 280 281 283 283 287 288 286 285 285 286 287